SIA123 WSSS-VVTS

Flight info

Callsign SIA123
Flight time 2h 7m
Altitude 35000
Route VMR9F VMR M771 DUDIS L644 CN W9 NIXIV NIXI5B
Aircraft B77W/H-SDE2E3FGHIJ4J5M1RWXYZ/LB1D1

Departure

Time 2026-05-06 13:48
Airport Singapore Changi Airport (WSSS)

Arrival

Time 2026-05-06 15:55
Airport Tan Son Nhat International Airport (VVTS)
Time Latitude Longitude Altitude Speed Heading
2026-05-06 13:23 1.37282 103.99189 30 ft 0 kts 112°
2026-05-06 13:33 1.37283 103.99185 30 ft 1 kts 112°
2026-05-06 13:34 1.37286 103.99179 30 ft 1 kts 112°
2026-05-06 13:34 1.37289 103.99173 29 ft 1 kts 112°
2026-05-06 13:34 1.37291 103.99166 28 ft 2 kts 112°
2026-05-06 13:34 1.37296 103.99154 28 ft 2 kts 112°
2026-05-06 13:35 1.37302 103.99141 28 ft 2 kts 95°
2026-05-06 13:35 1.37298 103.99128 26 ft 2 kts 27°
2026-05-06 13:35 1.37297 103.99127 26 ft 0 kts 21°
2026-05-06 13:38 1.37301 103.99129 26 ft 2 kts 20°
2026-05-06 13:38 1.37318 103.99135 27 ft 4 kts 21°
2026-05-06 13:38 1.37351 103.99147 30 ft 6 kts 20°
2026-05-06 13:39 1.37395 103.99165 30 ft 8 kts 23°
2026-05-06 13:39 1.37451 103.99190 30 ft 10 kts 23°
2026-05-06 13:39 1.37503 103.99212 30 ft 0 kts 22°
2026-05-06 13:39 1.37506 103.99213 30 ft 1 kts 22°
2026-05-06 13:40 1.37522 103.99219 30 ft 4 kts 18°
2026-05-06 13:40 1.37552 103.99229 30 ft 6 kts 18°
2026-05-06 13:40 1.37595 103.99246 30 ft 8 kts 20°
2026-05-06 13:40 1.37650 103.99267 30 ft 9 kts 22°
2026-05-06 13:41 1.37716 103.99296 30 ft 11 kts 22°
2026-05-06 13:41 1.37794 103.99329 29 ft 13 kts 20°
2026-05-06 13:41 1.37884 103.99362 29 ft 15 kts 18°
2026-05-06 13:41 1.37973 103.99331 29 ft 15 kts 308°
2026-05-06 13:42 1.38062 103.99281 29 ft 16 kts
2026-05-06 13:42 1.38118 103.99277 29 ft 7 kts 335°
2026-05-06 13:42 1.38133 103.99259 29 ft 0 kts 291°
2026-05-06 13:45 1.38134 103.99256 29 ft 1 kts 293°
2026-05-06 13:45 1.38141 103.99242 29 ft 3 kts 296°
2026-05-06 13:46 1.38154 103.99215 29 ft 5 kts 295°
2026-05-06 13:46 1.38171 103.99175 29 ft 7 kts 288°
2026-05-06 13:46 1.38160 103.99127 29 ft 8 kts 224°
2026-05-06 13:46 1.38131 103.99115 29 ft 0 kts 201°
2026-05-06 13:47 1.38125 103.99113 29 ft 8 kts 202°
2026-05-06 13:47 1.37838 103.98994 30 ft 83 kts 202°
2026-05-06 13:47 1.37081 103.98673 31 ft 151 kts 203°
2026-05-06 13:47 1.35978 103.98208 83 ft 195 kts 204°
2026-05-06 13:48 1.34720 103.97668 713 ft 196 kts 203°
2026-05-06 13:48 1.33464 103.97132 1329 ft 197 kts 202°
2026-05-06 13:48 1.32203 103.96598 1943 ft 198 kts 202°
2026-05-06 13:48 1.30869 103.96034 2125 ft 221 kts 202°
2026-05-06 13:49 1.29373 103.95402 2354 ft 245 kts 202°
2026-05-06 13:49 1.27763 103.94723 2850 ft 256 kts 202°
2026-05-06 13:49 1.26102 103.94028 3517 ft 262 kts 202°
2026-05-06 13:49 1.24327 103.93622 4073 ft 268 kts 177°
2026-05-06 13:50 1.22548 103.94164 4731 ft 271 kts 148°
2026-05-06 13:50 1.21120 103.95385 5393 ft 273 kts 136°
2026-05-06 13:50 1.19793 103.96689 6019 ft 278 kts 136°
2026-05-06 13:50 1.18408 103.98043 6727 ft 279 kts 136°
2026-05-06 13:51 1.17030 103.99412 7387 ft 279 kts 130°
2026-05-06 13:51 1.16117 104.01124 7873 ft 286 kts 102°
2026-05-06 13:51 1.16134 104.03105 8501 ft 289 kts 75°
2026-05-06 13:51 1.17006 104.04897 9155 ft 289 kts 54°
2026-05-06 13:52 1.18263 104.06499 9690 ft 295 kts 52°
2026-05-06 13:52 1.19557 104.08109 10265 ft 298 kts 50°
2026-05-06 13:52 1.21168 104.09465 10458 ft 313 kts 30°
2026-05-06 13:52 1.23155 104.10518 10649 ft 334 kts 29°
2026-05-06 13:53 1.25277 104.11626 10768 ft 352 kts 24°
2026-05-06 13:53 1.27735 104.12151 10922 ft 374 kts 359°
2026-05-06 13:53 1.30291 104.11584 11346 ft 387 kts 335°
2026-05-06 13:53 1.32500 104.10060 11892 ft 392 kts 319°
2026-05-06 13:54 1.34560 104.08231 12490 ft 400 kts 319°
2026-05-06 13:54 1.36650 104.06395 13222 ft 404 kts 320°
2026-05-06 13:54 1.38785 104.04561 13964 ft 407 kts 320°
2026-05-06 13:54 1.40964 104.02744 14588 ft 408 kts 324°
2026-05-06 13:55 1.43466 104.01402 15038 ft 410 kts 342°
2026-05-06 13:55 1.46209 104.00562 15522 ft 416 kts 345°
2026-05-06 13:55 1.48995 103.99729 16137 ft 420 kts 345°
2026-05-06 13:55 1.51795 103.98872 16819 ft 422 kts 344°
2026-05-06 13:56 1.54610 103.97988 17447 ft 426 kts 344°
2026-05-06 13:56 1.57442 103.97083 18024 ft 430 kts 343°
2026-05-06 13:56 1.60307 103.96158 18530 ft 435 kts 343°
2026-05-06 13:56 1.63202 103.95219 19041 ft 438 kts 343°
2026-05-06 13:57 1.66107 103.94276 19566 ft 441 kts 343°
2026-05-06 13:57 1.69038 103.93325 20072 ft 445 kts 343°
2026-05-06 13:57 1.71987 103.92369 20587 ft 448 kts 343°
2026-05-06 13:57 1.74969 103.91411 21054 ft 451 kts 345°
2026-05-06 13:58 1.78045 103.90788 21490 ft 452 kts 356°
2026-05-06 13:58 1.81186 103.90578 21934 ft 455 kts 359°
2026-05-06 13:58 1.84360 103.90457 22412 ft 458 kts 360°
2026-05-06 13:58 1.87415 103.90346 22861 ft 460 kts 360°
2026-05-06 13:59 1.90581 103.90208 23317 ft 463 kts 359°
2026-05-06 13:59 1.93814 103.90040 23706 ft 467 kts 359°
2026-05-06 13:59 1.97101 103.89847 24077 ft 469 kts 358°
2026-05-06 13:59 2.00265 103.89649 24439 ft 472 kts 358°
2026-05-06 14:00 2.03551 103.89438 24812 ft 474 kts 358°
2026-05-06 14:00 2.06852 103.89226 25178 ft 477 kts 358°
2026-05-06 14:00 2.10170 103.89013 25533 ft 479 kts 358°
2026-05-06 14:00 2.13505 103.88801 25866 ft 482 kts 358°
2026-05-06 14:01 2.16899 103.88586 26202 ft 484 kts 358°
2026-05-06 14:01 2.20233 103.88375 26530 ft 487 kts 358°
2026-05-06 14:01 2.23624 103.88161 26854 ft 489 kts 358°
2026-05-06 14:01 2.27079 103.87942 27148 ft 493 kts 358°
2026-05-06 14:02 2.30460 103.87728 27448 ft 495 kts 358°
2026-05-06 14:02 2.33909 103.87510 27758 ft 497 kts 358°
2026-05-06 14:02 2.37357 103.87481 27950 ft 496 kts
2026-05-06 14:02 2.40694 103.88306 28109 ft 496 kts 25°
2026-05-06 14:03 2.43666 103.90001 28352 ft 491 kts 35°
2026-05-06 14:03 2.46530 103.91902 28555 ft 495 kts 34°
2026-05-06 14:03 2.49432 103.93778 28794 ft 498 kts 34°
2026-05-06 14:03 2.52358 103.95634 29070 ft 500 kts 33°
2026-05-06 14:04 2.54353 103.96884 29246 ft 501 kts 33°
2026-05-06 14:04 2.58272 103.99321 29637 ft 502 kts 33°
2026-05-06 14:04 2.60238 104.00540 29848 ft 501 kts 33°
2026-05-06 14:04 2.63242 104.02403 30176 ft 501 kts 33°
2026-05-06 14:05 2.66158 104.04212 30498 ft 500 kts 33°
2026-05-06 14:05 2.69110 104.06046 30824 ft 499 kts 33°
2026-05-06 14:05 2.72050 104.07874 31144 ft 498 kts 33°
2026-05-06 14:05 2.74988 104.09702 31461 ft 497 kts 33°
2026-05-06 14:06 2.77925 104.11531 31781 ft 496 kts 33°
2026-05-06 14:06 2.80854 104.13354 32107 ft 496 kts 33°
2026-05-06 14:06 2.83775 104.15172 32413 ft 495 kts 33°
2026-05-06 14:06 2.86701 104.16994 32733 ft 494 kts 33°
2026-05-06 14:07 2.89617 104.18809 33056 ft 494 kts 33°
2026-05-06 14:07 2.92570 104.20647 33398 ft 493 kts 33°
2026-05-06 14:07 2.95477 104.22457 33720 ft 491 kts 33°
2026-05-06 14:07 2.98372 104.24259 34023 ft 491 kts 33°
2026-05-06 14:08 3.01210 104.26027 34265 ft 490 kts 33°
2026-05-06 14:08 3.04100 104.27826 34549 ft 489 kts 33°
2026-05-06 14:08 3.06981 104.29625 34809 ft 488 kts 33°
2026-05-06 14:08 3.09864 104.31445 34833 ft 492 kts 33°
2026-05-06 14:09 3.15641 104.35092 34877 ft 489 kts 33°
2026-05-06 14:09 3.21400 104.38656 34889 ft 485 kts 33°
2026-05-06 14:10 3.27132 104.42197 34891 ft 484 kts 33°
2026-05-06 14:10 3.32850 104.45741 34892 ft 484 kts 33°
2026-05-06 14:11 3.38574 104.49294 34890 ft 485 kts 33°
2026-05-06 14:11 3.44317 104.52857 34893 ft 487 kts 33°
2026-05-06 14:12 3.50089 104.56441 34893 ft 489 kts 33°
2026-05-06 14:12 3.55873 104.60036 34889 ft 490 kts 33°
2026-05-06 14:13 3.61668 104.63639 34889 ft 491 kts 33°
2026-05-06 14:13 3.67461 104.67241 34886 ft 490 kts 33°
2026-05-06 14:14 3.73263 104.70850 34881 ft 490 kts 33°
2026-05-06 14:14 3.79052 104.74451 34888 ft 490 kts 33°
2026-05-06 14:15 3.84843 104.78054 34890 ft 490 kts 33°
2026-05-06 14:15 3.90631 104.81657 34890 ft 490 kts 33°
2026-05-06 14:16 3.96412 104.85259 34890 ft 490 kts 33°
2026-05-06 14:16 4.02176 104.88851 34890 ft 490 kts 33°
2026-05-06 14:17 4.07959 104.92455 34890 ft 490 kts 33°
2026-05-06 14:17 4.13748 104.96064 34887 ft 490 kts 33°
2026-05-06 14:18 4.19532 104.99670 34887 ft 490 kts 33°
2026-05-06 14:18 4.25170 105.03180 34888 ft 490 kts 33°
2026-05-06 14:19 4.30924 105.06756 34891 ft 490 kts 33°
2026-05-06 14:19 4.36718 105.10359 34890 ft 490 kts 33°
2026-05-06 14:20 4.42546 105.13986 34888 ft 490 kts 33°
2026-05-06 14:20 4.48336 105.17589 34891 ft 490 kts 33°
2026-05-06 14:21 4.54087 105.21170 34890 ft 490 kts 33°
2026-05-06 14:21 4.59759 105.24702 34890 ft 489 kts 33°
2026-05-06 14:22 4.65547 105.28307 34888 ft 489 kts 33°
2026-05-06 14:22 4.71328 105.31908 34886 ft 490 kts 33°
2026-05-06 14:23 4.77119 105.35517 34892 ft 490 kts 33°
2026-05-06 14:23 4.82834 105.39091 34891 ft 490 kts 33°
2026-05-06 14:24 4.88562 105.42801 34890 ft 491 kts 34°
2026-05-06 14:24 4.94277 105.46548 34891 ft 491 kts 34°
2026-05-06 14:25 5.00000 105.50289 34892 ft 491 kts 34°
2026-05-06 14:25 5.05693 105.53997 34890 ft 491 kts 34°
2026-05-06 14:26 5.11432 105.57732 34890 ft 491 kts 34°
2026-05-06 14:26 5.17161 105.61461 34887 ft 491 kts 34°
2026-05-06 14:27 5.22850 105.65166 34894 ft 491 kts 34°
2026-05-06 14:27 5.28576 105.68896 34890 ft 491 kts 34°
2026-05-06 14:28 5.34337 105.72650 34891 ft 491 kts 34°
2026-05-06 14:28 5.40037 105.76365 34891 ft 491 kts 34°
2026-05-06 14:29 5.45775 105.80105 34890 ft 492 kts 34°
2026-05-06 14:29 5.51509 105.83844 34890 ft 492 kts 34°
2026-05-06 14:30 5.57246 105.87585 34889 ft 492 kts 34°
2026-05-06 14:30 5.62985 105.91329 34893 ft 492 kts 34°
2026-05-06 14:31 5.68723 105.95073 34892 ft 492 kts 34°
2026-05-06 14:31 5.74455 105.98814 34891 ft 492 kts 34°
2026-05-06 14:32 5.80025 106.02450 34893 ft 492 kts 34°
2026-05-06 14:32 5.85771 106.06202 34892 ft 493 kts 34°
2026-05-06 14:33 5.91518 106.09955 34885 ft 492 kts 34°
2026-05-06 14:33 5.97134 106.13624 34893 ft 492 kts 34°
2026-05-06 14:34 6.02848 106.17358 34894 ft 492 kts 34°
2026-05-06 14:34 6.08583 106.21106 34889 ft 492 kts 34°
2026-05-06 14:35 6.14318 106.24855 34890 ft 491 kts 34°
2026-05-06 14:35 6.20046 106.28601 34890 ft 491 kts 34°
2026-05-06 14:36 6.25775 106.32349 34893 ft 491 kts 34°
2026-05-06 14:36 6.31495 106.36091 34890 ft 491 kts 34°
2026-05-06 14:37 6.37222 106.39840 34891 ft 491 kts 34°
2026-05-06 14:37 6.42952 106.43591 34887 ft 491 kts 34°
2026-05-06 14:38 6.48683 106.47344 34888 ft 492 kts 34°
2026-05-06 14:38 6.54417 106.51099 34888 ft 492 kts 34°
2026-05-06 14:39 6.60116 106.54834 34888 ft 492 kts 34°
2026-05-06 14:39 6.65894 106.58621 34891 ft 493 kts 34°
2026-05-06 14:40 6.71615 106.62371 34584 ft 487 kts 34°
2026-05-06 14:40 6.74406 106.64200 34109 ft 484 kts 34°
2026-05-06 14:40 6.77216 106.66043 33595 ft 481 kts 34°
2026-05-06 14:41 6.80009 106.67876 33072 ft 478 kts 34°
2026-05-06 14:41 6.82782 106.69695 32582 ft 474 kts 34°
2026-05-06 14:41 6.85535 106.71502 32120 ft 470 kts 34°
2026-05-06 14:41 6.88259 106.73290 31658 ft 467 kts 34°
2026-05-06 14:42 6.90973 106.75071 31181 ft 464 kts 34°
2026-05-06 14:42 6.93667 106.76840 30656 ft 463 kts 34°
2026-05-06 14:42 6.96368 106.78592 30140 ft 460 kts 31°
2026-05-06 14:42 6.99279 106.79911 29517 ft 461 kts 17°
2026-05-06 14:43 7.02388 106.80556 29019 ft 458 kts
2026-05-06 14:43 7.05550 106.80573 28560 ft 452 kts 355°
2026-05-06 14:43 7.08672 106.80232 28069 ft 449 kts 354°
2026-05-06 14:43 7.11758 106.79866 27604 ft 446 kts 354°
2026-05-06 14:44 7.14825 106.79499 27150 ft 442 kts 354°
2026-05-06 14:44 7.17873 106.79144 26671 ft 440 kts 354°
2026-05-06 14:44 7.20898 106.78804 26266 ft 436 kts 354°
2026-05-06 14:45 7.26881 106.78155 25430 ft 429 kts 355°
2026-05-06 14:45 7.29845 106.77840 24980 ft 428 kts 355°
2026-05-06 14:45 7.32791 106.77528 24604 ft 424 kts 355°
2026-05-06 14:45 7.35706 106.77220 24218 ft 421 kts 355°
2026-05-06 14:46 7.38613 106.76913 23789 ft 419 kts 355°
2026-05-06 14:46 7.41498 106.76607 23425 ft 416 kts 355°
2026-05-06 14:46 7.44365 106.76304 23013 ft 411 kts 355°
2026-05-06 14:46 7.47200 106.76004 22573 ft 408 kts 355°
2026-05-06 14:47 7.50018 106.75705 22112 ft 406 kts 355°
2026-05-06 14:47 7.52821 106.75408 21702 ft 403 kts 355°
2026-05-06 14:47 7.55597 106.75114 21316 ft 400 kts 355°
2026-05-06 14:47 7.58353 106.74822 20893 ft 397 kts 355°
2026-05-06 14:48 7.61093 106.74531 20475 ft 395 kts 355°
2026-05-06 14:48 7.63814 106.74243 20082 ft 392 kts 355°
2026-05-06 14:48 7.66514 106.73956 19700 ft 389 kts 356°
2026-05-06 14:48 7.69196 106.73672 19310 ft 386 kts 356°
2026-05-06 14:49 7.70968 106.73484 19054 ft 385 kts 355°
2026-05-06 14:49 7.73618 106.73203 18687 ft 382 kts 356°
2026-05-06 14:49 7.76254 106.72923 18320 ft 380 kts 355°
2026-05-06 14:49 7.78877 106.72644 17893 ft 377 kts 356°
2026-05-06 14:50 7.81480 106.72368 17463 ft 375 kts 355°
2026-05-06 14:50 7.84067 106.72094 17055 ft 373 kts 355°
2026-05-06 14:50 7.86641 106.71820 16649 ft 371 kts 355°
2026-05-06 14:50 7.89196 106.71549 16236 ft 368 kts 356°
2026-05-06 14:51 7.91726 106.71280 15980 ft 362 kts 356°
2026-05-06 14:51 7.94194 106.71017 15808 ft 352 kts 355°
2026-05-06 14:51 7.96600 106.70761 15644 ft 343 kts 356°
2026-05-06 14:51 7.98958 106.70510 15391 ft 338 kts 356°
2026-05-06 14:52 8.01266 106.70265 15045 ft 336 kts 356°
2026-05-06 14:52 8.03587 106.70019 14902 ft 337 kts 356°
2026-05-06 14:52 8.05930 106.69772 14907 ft 340 kts 355°
2026-05-06 14:52 8.08280 106.69522 14891 ft 338 kts 356°
2026-05-06 14:53 8.10612 106.69274 14883 ft 336 kts 356°
2026-05-06 14:53 8.12932 106.69028 14882 ft 335 kts 356°
2026-05-06 14:53 8.15243 106.68782 14881 ft 334 kts 356°
2026-05-06 14:53 8.17554 106.68537 14882 ft 333 kts 355°
2026-05-06 14:54 8.19861 106.68291 14881 ft 333 kts 356°
2026-05-06 14:54 8.22166 106.68046 14886 ft 333 kts 356°
2026-05-06 14:54 8.24471 106.67801 14884 ft 333 kts 356°
2026-05-06 14:54 8.26779 106.67556 14888 ft 334 kts 356°
2026-05-06 14:55 8.29089 106.67310 14890 ft 334 kts 356°
2026-05-06 14:55 8.31405 106.67064 14889 ft 335 kts 356°
2026-05-06 14:55 8.33698 106.66820 14886 ft 336 kts 356°
2026-05-06 14:55 8.36054 106.66570 14882 ft 336 kts 355°
2026-05-06 14:56 8.38350 106.66325 14886 ft 337 kts 356°
2026-05-06 14:56 8.40678 106.66077 14884 ft 337 kts 356°
2026-05-06 14:56 8.43012 106.65828 14888 ft 337 kts 356°
2026-05-06 14:56 8.45351 106.65579 14886 ft 338 kts 356°
2026-05-06 14:57 8.47687 106.65331 14886 ft 338 kts 355°
2026-05-06 14:57 8.50024 106.65081 14884 ft 338 kts 356°
2026-05-06 14:57 8.52365 106.64832 14885 ft 338 kts 355°
2026-05-06 14:57 8.54700 106.64583 14884 ft 338 kts 355°
2026-05-06 14:58 8.57037 106.64334 14884 ft 337 kts 356°
2026-05-06 14:58 8.59373 106.64085 14884 ft 337 kts 356°
2026-05-06 14:58 8.61703 106.63836 14884 ft 337 kts 356°
2026-05-06 14:58 8.64033 106.63588 14887 ft 336 kts 355°
2026-05-06 14:59 8.66352 106.63341 14884 ft 336 kts 355°
2026-05-06 14:59 8.68682 106.63093 14882 ft 336 kts 356°
2026-05-06 14:59 8.70922 106.62854 14885 ft 336 kts 356°
2026-05-06 14:59 8.73245 106.62623 14885 ft 335 kts 359°
2026-05-06 15:00 8.75575 106.62553 14881 ft 334 kts
2026-05-06 15:00 8.77898 106.62575 14885 ft 333 kts
2026-05-06 15:00 8.80215 106.62621 14887 ft 333 kts
2026-05-06 15:00 8.82533 106.62670 14885 ft 333 kts
2026-05-06 15:01 8.84849 106.62715 14883 ft 333 kts
2026-05-06 15:01 8.87169 106.62753 14887 ft 333 kts
2026-05-06 15:01 8.89483 106.62787 14884 ft 333 kts
2026-05-06 15:01 8.91798 106.62819 14886 ft 333 kts
2026-05-06 15:02 8.94118 106.62850 14888 ft 333 kts
2026-05-06 15:02 8.96440 106.62879 14885 ft 334 kts
2026-05-06 15:02 8.98759 106.62907 14883 ft 334 kts
2026-05-06 15:02 9.01035 106.62936 14885 ft 334 kts
2026-05-06 15:03 9.03358 106.62964 14887 ft 334 kts
2026-05-06 15:03 9.05682 106.62992 14881 ft 334 kts
2026-05-06 15:03 9.08004 106.63020 14881 ft 334 kts
2026-05-06 15:03 9.10329 106.63048 14885 ft 334 kts
2026-05-06 15:04 9.12650 106.63076 14883 ft 334 kts
2026-05-06 15:04 9.14968 106.63104 14886 ft 333 kts
2026-05-06 15:04 9.17288 106.63132 14886 ft 333 kts
2026-05-06 15:04 9.19606 106.63161 14881 ft 333 kts
2026-05-06 15:05 9.21922 106.63189 14883 ft 333 kts
2026-05-06 15:05 9.24236 106.63217 14886 ft 333 kts
2026-05-06 15:05 9.26550 106.63245 14889 ft 333 kts
2026-05-06 15:05 9.28866 106.63273 14883 ft 333 kts
2026-05-06 15:06 9.31177 106.63302 14885 ft 333 kts
2026-05-06 15:06 9.33492 106.63329 14887 ft 332 kts
2026-05-06 15:06 9.35803 106.63357 14886 ft 332 kts
2026-05-06 15:06 9.38113 106.63386 14883 ft 333 kts
2026-05-06 15:07 9.40426 106.63472 14883 ft 332 kts
2026-05-06 15:07 9.42712 106.63767 14890 ft 330 kts 11°
2026-05-06 15:07 9.44976 106.64142 14849 ft 329 kts 11°
2026-05-06 15:07 9.47234 106.64529 14581 ft 328 kts 11°
2026-05-06 15:08 9.49476 106.64908 14216 ft 327 kts 11°
2026-05-06 15:08 9.51719 106.65278 13884 ft 326 kts 11°
2026-05-06 15:08 9.53951 106.65638 13546 ft 324 kts 10°
2026-05-06 15:08 9.56172 106.65991 13178 ft 322 kts 10°
2026-05-06 15:09 9.58378 106.66337 12830 ft 320 kts 10°
2026-05-06 15:09 9.60571 106.66679 12478 ft 318 kts 10°
2026-05-06 15:09 9.62750 106.67018 12133 ft 316 kts 10°
2026-05-06 15:09 9.64921 106.67354 11783 ft 314 kts 10°
2026-05-06 15:10 9.67076 106.67688 11440 ft 313 kts 10°
2026-05-06 15:10 9.69219 106.68020 11115 ft 311 kts 10°
2026-05-06 15:10 9.71353 106.68350 10786 ft 309 kts 11°
2026-05-06 15:10 9.73475 106.68678 10457 ft 308 kts 11°
2026-05-06 15:11 9.75587 106.69005 10133 ft 306 kts 11°
2026-05-06 15:11 9.77686 106.69330 9825 ft 305 kts 11°
2026-05-06 15:11 9.79774 106.69653 9482 ft 303 kts 11°
2026-05-06 15:11 9.81849 106.69973 9162 ft 300 kts 11°
2026-05-06 15:12 9.83870 106.70284 8898 ft 296 kts 12°
2026-05-06 15:12 9.85900 106.70599 8543 ft 296 kts 11°
2026-05-06 15:12 9.87933 106.70915 8176 ft 295 kts 11°
2026-05-06 15:12 9.89958 106.71229 7865 ft 293 kts 12°
2026-05-06 15:13 9.91971 106.71541 7539 ft 292 kts 12°
2026-05-06 15:13 9.93975 106.71851 7238 ft 290 kts 11°
2026-05-06 15:13 9.95964 106.72159 6936 ft 288 kts 12°
2026-05-06 15:13 9.97937 106.72465 6653 ft 286 kts 12°
2026-05-06 15:14 9.99899 106.72769 6345 ft 285 kts 12°
2026-05-06 15:14 10.01841 106.73070 6083 ft 281 kts 12°
2026-05-06 15:14 10.03737 106.73363 5993 ft 270 kts 12°
2026-05-06 15:14 10.05562 106.73645 5902 ft 261 kts 12°
2026-05-06 15:15 10.07334 106.73920 5742 ft 254 kts 12°
2026-05-06 15:15 10.09059 106.74188 5533 ft 249 kts 13°
2026-05-06 15:15 10.10765 106.74453 5214 ft 249 kts 13°
2026-05-06 15:15 10.12482 106.74720 4888 ft 249 kts 12°
2026-05-06 15:16 10.14195 106.74986 4622 ft 247 kts 12°
2026-05-06 15:16 10.15835 106.75327 4374 ft 242 kts 19°
2026-05-06 15:16 10.17469 106.75806 4039 ft 242 kts 21°
2026-05-06 15:16 10.19060 106.76296 3716 ft 242 kts 21°
2026-05-06 15:17 10.20670 106.76788 3407 ft 241 kts 21°
2026-05-06 15:17 10.22268 106.77273 3203 ft 235 kts 21°
2026-05-06 15:17 10.23799 106.77732 3228 ft 229 kts 21°
2026-05-06 15:17 10.25345 106.78196 3313 ft 234 kts 21°
2026-05-06 15:18 10.26925 106.78670 3380 ft 242 kts 20°
2026-05-06 15:18 10.28536 106.79149 3660 ft 240 kts 20°
2026-05-06 15:18 10.30150 106.79628 3880 ft 244 kts 20°
2026-05-06 15:18 10.31780 106.80110 4173 ft 244 kts 20°
2026-05-06 15:19 10.33407 106.80591 4513 ft 243 kts 20°
2026-05-06 15:19 10.35028 106.81070 4821 ft 245 kts 20°
2026-05-06 15:19 10.36695 106.81564 4805 ft 252 kts 20°
2026-05-06 15:19 10.38364 106.82057 4771 ft 248 kts 20°
2026-05-06 15:20 10.40005 106.82540 4732 ft 243 kts 20°
2026-05-06 15:20 10.41612 106.83013 4680 ft 238 kts 20°
2026-05-06 15:20 10.43195 106.83481 4565 ft 236 kts 20°
2026-05-06 15:20 10.44772 106.83948 4421 ft 236 kts 20°
2026-05-06 15:21 10.46337 106.84430 4245 ft 232 kts 27°
2026-05-06 15:21 10.47583 106.85397 3940 ft 226 kts 58°
2026-05-06 15:21 10.48242 106.86830 3762 ft 224 kts 74°
2026-05-06 15:21 10.48641 106.88369 3602 ft 225 kts 77°
2026-05-06 15:22 10.49006 106.89920 3578 ft 227 kts 77°
2026-05-06 15:22 10.49380 106.91490 3538 ft 230 kts 77°
2026-05-06 15:22 10.49760 106.93059 3529 ft 228 kts 77°
2026-05-06 15:22 10.50143 106.94623 3520 ft 227 kts 77°
2026-05-06 15:23 10.50526 106.96177 3517 ft 226 kts 76°
2026-05-06 15:23 10.50912 106.97725 3516 ft 225 kts 74°
2026-05-06 15:23 10.51441 106.99220 3526 ft 225 kts 69°
2026-05-06 15:23 10.51993 107.00586 3528 ft 226 kts 69°
2026-05-06 15:24 10.52589 107.02059 3438 ft 224 kts 69°
2026-05-06 15:24 10.53174 107.03526 3329 ft 224 kts 69°
2026-05-06 15:24 10.53752 107.04993 3224 ft 223 kts 70°
2026-05-06 15:24 10.54321 107.06444 3149 ft 219 kts 70°
2026-05-06 15:25 10.54877 107.07866 3080 ft 216 kts 70°
2026-05-06 15:25 10.55431 107.09285 3034 ft 216 kts 70°
2026-05-06 15:25 10.56110 107.10638 3022 ft 218 kts 52°
2026-05-06 15:25 10.57166 107.11757 3037 ft 223 kts 49°
2026-05-06 15:26 10.58244 107.12925 3037 ft 228 kts 50°
2026-05-06 15:26 10.59297 107.14085 3020 ft 224 kts 50°
2026-05-06 15:26 10.60357 107.15253 3018 ft 220 kts 50°
2026-05-06 15:26 10.61394 107.16398 3029 ft 221 kts 50°
2026-05-06 15:27 10.62433 107.17544 3076 ft 221 kts 50°
2026-05-06 15:27 10.63481 107.18701 3035 ft 224 kts 50°
2026-05-06 15:27 10.64539 107.19867 3033 ft 224 kts 49°
2026-05-06 15:27 10.65779 107.20815 3038 ft 224 kts 33°
2026-05-06 15:28 10.67173 107.21546 3027 ft 227 kts 30°
2026-05-06 15:28 10.68562 107.22255 3031 ft 227 kts 31°
2026-05-06 15:28 10.69973 107.22990 3028 ft 228 kts 31°
2026-05-06 15:28 10.71380 107.23735 3020 ft 226 kts 31°
2026-05-06 15:29 10.72733 107.24455 3000 ft 213 kts 32°
2026-05-06 15:29 10.74018 107.25140 3011 ft 206 kts 32°
2026-05-06 15:29 10.75303 107.25782 3011 ft 206 kts 22°
2026-05-06 15:29 10.76707 107.26086 3026 ft 208 kts 14°
2026-05-06 15:30 10.78137 107.26310 3030 ft 208 kts 14°
2026-05-06 15:30 10.79572 107.26541 3030 ft 209 kts 14°
2026-05-06 15:30 10.81006 107.26782 3029 ft 207 kts 14°
2026-05-06 15:30 10.82395 107.27017 3011 ft 199 kts 12°
2026-05-06 15:31 10.83730 107.27247 3012 ft 192 kts 12°
2026-05-06 15:31 10.85063 107.27352 2996 ft 194 kts 348°
2026-05-06 15:31 10.86206 107.26659 3040 ft 199 kts 308°
2026-05-06 15:32 10.86650 107.24055 3014 ft 186 kts 271°
2026-05-06 15:32 10.86666 107.22759 3006 ft 181 kts 271°
2026-05-06 15:32 10.86679 107.21481 3025 ft 182 kts 270°
2026-05-06 15:32 10.86691 107.20188 3016 ft 183 kts 271°
2026-05-06 15:33 10.86703 107.18903 2827 ft 180 kts 271°
2026-05-06 15:33 10.86715 107.17636 2514 ft 181 kts 270°
2026-05-06 15:33 10.86728 107.16314 2560 ft 186 kts 270°
2026-05-06 15:33 10.86742 107.15020 2513 ft 181 kts 270°
2026-05-06 15:34 10.86756 107.13747 2508 ft 180 kts 270°
2026-05-06 15:34 10.86766 107.12899 2529 ft 182 kts 270°
2026-05-06 15:34 10.86785 107.11277 2525 ft 183 kts 270°
2026-05-06 15:34 10.86799 107.09981 2525 ft 183 kts 270°
2026-05-06 15:35 10.86814 107.08686 2528 ft 183 kts 270°
2026-05-06 15:35 10.86830 107.07390 2518 ft 183 kts 270°
2026-05-06 15:35 10.86845 107.06095 2520 ft 183 kts 270°
2026-05-06 15:35 10.86860 107.04806 2507 ft 182 kts 270°
2026-05-06 15:36 10.86875 107.03523 2509 ft 181 kts 270°
2026-05-06 15:36 10.86890 107.02251 2505 ft 180 kts 270°
2026-05-06 15:36 10.86900 107.01406 2516 ft 181 kts 270°
2026-05-06 15:36 10.86920 106.99710 2519 ft 181 kts 270°
2026-05-06 15:37 10.86935 106.98429 2515 ft 181 kts 270°
2026-05-06 15:37 10.86951 106.97148 2510 ft 181 kts 270°
2026-05-06 15:37 10.86965 106.95880 2519 ft 181 kts 270°
2026-05-06 15:37 10.86975 106.95016 2523 ft 181 kts 270°
2026-05-06 15:38 10.86995 106.93323 2522 ft 181 kts 270°
2026-05-06 15:38 10.87010 106.92042 2514 ft 181 kts 270°
2026-05-06 15:38 10.87020 106.91179 2513 ft 181 kts 270°
2026-05-06 15:38 10.87085 106.89908 2505 ft 180 kts 278°
2026-05-06 15:39 10.87293 106.88646 2523 ft 182 kts 279°
2026-05-06 15:39 10.87509 106.87381 2503 ft 181 kts 279°
2026-05-06 15:39 10.87721 106.86123 2507 ft 180 kts 279°
2026-05-06 15:39 10.87929 106.84865 2505 ft 180 kts 279°
2026-05-06 15:40 10.88133 106.83629 2419 ft 179 kts 279°
2026-05-06 15:40 10.88320 106.82372 2357 ft 180 kts 270°
2026-05-06 15:40 10.88048 106.81182 2318 ft 169 kts 245°
2026-05-06 15:40 10.87628 106.80080 2354 ft 167 kts 248°
2026-05-06 15:41 10.87226 106.78970 2303 ft 166 kts 248°
2026-05-06 15:41 10.86823 106.77874 2048 ft 165 kts 247°
2026-05-06 15:41 10.86420 106.76790 1661 ft 163 kts 246°
2026-05-06 15:41 10.86014 106.75700 1528 ft 166 kts 246°
2026-05-06 15:42 10.85607 106.74609 1569 ft 161 kts 246°
2026-05-06 15:42 10.85202 106.73512 1740 ft 172 kts 247°
2026-05-06 15:42 10.84787 106.72353 1531 ft 173 kts 248°
2026-05-06 15:42 10.84399 106.71203 1269 ft 174 kts 249°
2026-05-06 15:43 10.84036 106.70060 1013 ft 166 kts 250°
2026-05-06 15:43 10.83682 106.68960 802 ft 164 kts 249°
2026-05-06 15:43 10.83322 106.67873 632 ft 161 kts 245°
2026-05-06 15:43 10.82823 106.66838 363 ft 161 kts 233°
2026-05-06 15:44 10.82225 106.65875 138 ft 154 kts 245°
2026-05-06 15:44 10.81917 106.64889 636 ft 146 kts 251°
2026-05-06 15:44 10.81400 106.63977 674 ft 151 kts 219°
2026-05-06 15:44 10.80816 106.63175 1158 ft 145 kts 237°
2026-05-06 15:45 10.80336 106.62137 1293 ft 177 kts 258°
2026-05-06 15:45 10.80314 106.60818 1619 ft 192 kts 263°
2026-05-06 15:45 10.79954 106.59486 2061 ft 198 kts 248°
2026-05-06 15:45 10.79500 106.58150 2611 ft 200 kts 248°
2026-05-06 15:46 10.78744 106.57016 2794 ft 194 kts 208°
2026-05-06 15:46 10.77494 106.56783 2817 ft 183 kts 160°
2026-05-06 15:46 10.76570 106.57573 2859 ft 176 kts 112°
2026-05-06 15:46 10.76420 106.58790 2998 ft 176 kts 82°
2026-05-06 15:47 10.76875 106.59957 3109 ft 181 kts 66°
2026-05-06 15:47 10.77428 106.61119 3277 ft 186 kts 67°
2026-05-06 15:47 10.77654 106.62377 3215 ft 186 kts 107°
2026-05-06 15:47 10.77083 106.63624 3296 ft 204 kts 108°
2026-05-06 15:48 10.77059 106.65036 3284 ft 205 kts 67°
2026-05-06 15:48 10.77754 106.66279 3098 ft 201 kts 62°
2026-05-06 15:48 10.78417 106.67511 2842 ft 199 kts 65°
2026-05-06 15:48 10.79013 106.68746 2638 ft 190 kts 67°
2026-05-06 15:49 10.79539 106.69928 2561 ft 180 kts 69°
2026-05-06 15:49 10.80032 106.71108 2507 ft 178 kts 70°
2026-05-06 15:49 10.80488 106.72251 2508 ft 177 kts 71°
2026-05-06 15:49 10.80942 106.73425 2509 ft 179 kts 71°
2026-05-06 15:50 10.81388 106.74611 2505 ft 180 kts 71°
2026-05-06 15:50 10.81830 106.75803 2497 ft 180 kts 72°
2026-05-06 15:50 10.82265 106.76996 2507 ft 178 kts 72°
2026-05-06 15:50 10.82691 106.78173 2506 ft 178 kts 72°
2026-05-06 15:51 10.83113 106.79351 2501 ft 177 kts 72°
2026-05-06 15:51 10.83624 106.80469 2462 ft 175 kts 50°
2026-05-06 15:51 10.84744 106.80992 2349 ft 188 kts
2026-05-06 15:51 10.85994 106.80613 2054 ft 193 kts 321°
2026-05-06 15:52 10.86691 106.79463 2055 ft 199 kts 280°
2026-05-06 15:52 10.86559 106.78092 2028 ft 200 kts 249°
2026-05-06 15:52 10.86085 106.76806 1978 ft 188 kts 247°
2026-05-06 15:52 10.85634 106.75613 1713 ft 171 kts 247°
2026-05-06 15:53 10.85223 106.74527 1511 ft 161 kts 246°
2026-05-06 15:53 10.84818 106.73454 1325 ft 166 kts 247°
2026-05-06 15:53 10.84398 106.72341 1106 ft 170 kts 248°
2026-05-06 15:53 10.83978 106.71223 890 ft 166 kts 247°
2026-05-06 15:54 10.83574 106.70148 702 ft 159 kts 248°
2026-05-06 15:54 10.83183 106.69105 506 ft 157 kts 248°
2026-05-06 15:54 10.82792 106.68059 312 ft 161 kts 249°
2026-05-06 15:54 10.82391 106.66991 97 ft 163 kts 250°
2026-05-06 15:55 10.82003 106.65969 44 ft 143 kts 249°
2026-05-06 15:55 10.81815 106.65466 42 ft 37 kts 249°
2026-05-06 15:55 10.81722 106.65221 43 ft 23 kts 248°
2026-05-06 15:55 10.81646 106.65106 45 ft 23 kts 207°
2026-05-06 15:56 10.81543 106.65046 45 ft 16 kts 165°
2026-05-06 15:56 10.81522 106.65145 43 ft 16 kts 78°
2026-05-06 15:56 10.81552 106.65255 42 ft 16 kts 70°
2026-05-06 15:56 10.81579 106.65328 40 ft 7 kts 69°
2026-05-06 15:57 10.81599 106.65381 39 ft 9 kts 69°
2026-05-06 15:57 10.81258 106.66118 41 ft 0 kts 94°
2026-05-06 15:58 10.81342 106.65931 42 ft 0 kts 276°
2026-05-06 15:59 10.81488 106.65888 40 ft 0 kts 96°